Location: Bodest
(46.3000°N, 22.5667°E)
Time: 09:11:02
(UTC+00:00)

Iridium 4 Rocket - Pass Details

Date: 16 October 2021
Orbit: 586 x 903 km, 86.9° (Epoch: 07 December)

Event Time Altitude Azimuth Distance (km) Brightness Sun altitude
Rises 17:45:40 0° 352° (N) 2,876 6.7 -22.2°
Reaches altitude 10° 17:47:51 10° 348° (NNW) 1,995 5.9 -22.5°
Maximum altitude 17:52:06 54° 272° (W) 793 3.9 -23.3°
Drops below altitude 10° 17:56:41 10° 195° (SSW) 2,135 5.8 -24.0°
Sets 17:59:04 0° 191° (S) 3,100 6.6 -24.4°
